Powrót do katalogu

DMSP 5D-2 F15 DEB

AktywnySSO
NORAD 25993·DEBRIS·🇺🇸 United States

Wystrzelony Dec 12, 1999 z Vandenberg Space Force Base

Loading…

Następne Przeloty (najbliższe 24 godziny)

TLE

ŚwieżeSource: Space-Track

Epoka: Sep 14, 2026, 11:25 UTC

1 25993U 99067C   26257.47591236  .00003138  00000-0  71885-3 0  9995
2 25993  98.3514 244.4965 0004425  44.9589 107.3792 14.56295867396952

Śledź DMSP 5D-2 F15 DEB w czasie rzeczywistym z AllMySat

Download on the App Store